Showing default

PEARL-1B, 68980

Orbit data source: Space-Track

PEARL-1B, 68980 is a Taiwanese payload satellite in SSO that was launched on Sun, 03 May 2026 UTC via an FALCON 9 launch vehicle from the Air Force Western Test Range (AFWTR). Payload-class satellites include a variety of spacecraft equipped with specific instruments for various scientific and technological missions. These include communications satellites like Starlink; space stations such as the ISS; scientific satellites like the Hubble; Earth observation satellites from companies like Planet Labs, Umbra, and HawkEye 360; GPS; miniature CubeSats for education and research; and military/defense satellites.

Loading next visibility...
Identifier
68980, 2026-100A
Orbit
SSO
Country
Flag of TWTW / TWN
Related business
Manufacturer
Endurosat
Mission
Operational spacecraft
Bus & Motor
CUBESAT 6UXL, Unknown motor
Mass
8.8 kg wet, 8.8 kg dry
Launch date (UTC)
2026-05-03 (2 months ago)
Launch vehicle
FALCON 9
Launch site
Air Force Western Test Range (AFWTR)
Object type
Payload
Rocket body
Debris
Shape & HBR
Unknown shape, 14.5 m
Radar Cross Section
Medium (>0.1 m² and <1 m²)

Expand to show TLE details & history
Last TLE update: 18 hours ago

TLE from 18 hours ago
0 PEARL-1B
1 68980U 26100A   26175.09240361  .00001498  00000-0  15861-3 0  9992
2 68980  97.7361  72.3244 0008634 118.0474 242.1618 14.90586123  7712
Epoch: 2026-06-24T02:13Z
TLE epoch observation values (Epoch: 2026-06-24T02:13:03.671Z)
Latitude
-0.00008°
Longitude
126.80454°
Altitude
601.964 km
Speed
7.557 km/s
True Right ascension
04h 49m 17s
True Declination
0° 00' 00"
Sunlit
Object was in daylight at epoch
Visualization orbit readout
Latitude
Unknown
Longitude
Unknown
Altitude
Unknown
Speed
Unknown
Apparent Right ascension
Unknown
Apparent Declination
Unknown
Sunlit
N/A
Visualization observer readout
Local Sidereal Time
07:21:04
Azimuth
Unknown
Elevation
Unknown
Doppler factor
Unknown
Orbital elements
Apogee altitude
599.145 km
Perigee altitude
587.107 km
Semi-major axis
6,971.263 km
Eccentricity
0.00086
Inclination
97.7361°
RAAN
72.3244°
Arg. of periapsis
118.0474°
True anomaly
242.07436°
Mean anomaly
242.1618°
Eccentric anomaly
242.11807°
Mean motion
3.72886 °/min
Orbital period
96.54 mins
BSTAR
0.00015861
Loading maneuver chart data...
Computing Atmospheric mass density...
Loading historical data...
Loading historical data...
Loading historical data...
Loading historical data...
Loading historical data...
Loading historical data...
Loading historical data...

Documentation

Showing up to 5 results
|